• In Österreich
  • Länderverzeichnis
  • Für 7 Tage
  • Wassertemperatur
  • Satellitenkarten
  • Wetterkarte
  • News
  • Widgets
  • user-avatar
    Anmelden

    Stündliche Wetter Wadzhda

    Heute, 22 Juli, Sonntag

    Zeit Temperatur Niederschläge Wind Luftdruck Luftfeuchtigkeit
    00:00 +30°C° 0 mm 1 m/S 713 mmHg 32%
    01:00 +30°C° 0 mm 1 m/S 712 mmHg 32%
    02:00 +29°C° 0 mm 1 m/S 712 mmHg 33%
    03:00 +29°C° 0 mm 1 m/S 712 mmHg 34%
    04:00 +29°C° 0 mm 1 m/S 712 mmHg 34%
    05:00 +28°C° 0 mm 1 m/S 712 mmHg 35%
    06:00 +28°C° 0 mm 1 m/S 712 mmHg 35%
    07:00 +29°C° 0 mm 1 m/S 712 mmHg 34%
    08:00 +30°C° 0 mm 1 m/S 712 mmHg 32%
    09:00 +30°C° 0 mm 2 m/S 713 mmHg 31%
    10:00 +31°C° 0 mm 2 m/S 713 mmHg 29%
    11:00 +34°C° 0 mm 2 m/S 713 mmHg 27%
    12:00 +35°C° 0 mm 2 m/S 713 mmHg 25%
    13:00 +35°C° 0 mm 3 m/S 713 mmHg 25%
    14:00 +36°C° 0 mm 4 m/S 712 mmHg 25%
    15:00 +36°C° 0 mm 5 m/S 712 mmHg 24%
    16:00 +35°C° 0 mm 4 m/S 712 mmHg 25%
    17:00 +34°C° 0 mm 4 m/S 712 mmHg 26%
    18:00 +33°C° 0 mm 4 m/S 712 mmHg 27%
    19:00 +31°C° 0 mm 3 m/S 713 mmHg 29%
    20:00 +31°C° 0 mm 2 m/S 713 mmHg 30%
    21:00 +30°C° 0 mm 2 m/S 714 mmHg 32%
    22:00 +29°C° 0 mm 1 m/S 714 mmHg 34%
    23:00 +29°C° 0 mm 1 m/S 714 mmHg 35%

    Morgen, 23 Juli, Montag

    Zeit Temperatur Niederschläge Wind Luftdruck Luftfeuchtigkeit
    00:00 +26°C° 0 mm 0 m/S 714 mmHg 37%
    01:00 +26°C° 0 mm 0 m/S 714 mmHg 38%
    02:00 +25°C° 0 mm 0 m/S 714 mmHg 40%
    03:00 +27°C° 0 mm 1 m/S 714 mmHg 41%
    04:00 +27°C° 0 mm 1 m/S 714 mmHg 42%
    05:00 +27°C° 0 mm 1 m/S 714 mmHg 42%
    06:00 +27°C° 0 mm 1 m/S 714 mmHg 43%
    07:00 +28°C° 0 mm 1 m/S 714 mmHg 38%
    08:00 +30°C° 0 mm 1 m/S 714 mmHg 34%
    09:00 +32°C° 0 mm 1 m/S 715 mmHg 30%
    10:00 +34°C° 0 mm 2 m/S 715 mmHg 29%
    11:00 +35°C° 0 mm 2 m/S 715 mmHg 28%
    12:00 +36°C° 0 mm 3 m/S 715 mmHg 26%
    13:00 +37°C° 0 mm 3 m/S 714 mmHg 27%
    14:00 +37°C° 0 mm 4 m/S 714 mmHg 28%
    15:00 +37°C° 0 mm 4 m/S 714 mmHg 29%
    16:00 +36°C° 0 mm 4 m/S 714 mmHg 31%
    17:00 +35°C° 0 mm 3 m/S 713 mmHg 34%
    18:00 +35°C° 0 mm 3 m/S 713 mmHg 36%
    19:00 +34°C° 0 mm 3 m/S 713 mmHg 39%
    20:00 +31°C° 0 mm 2 m/S 714 mmHg 43%
    21:00 +30°C° 0 mm 2 m/S 714 mmHg 46%
    22:00 +30°C° 0 mm 1 m/S 714 mmHg 47%
    23:00 +30°C° 0 mm 1 m/S 714 mmHg 48%

    übermorgen, 24 Juli, Dienstag

    Zeit Temperatur Niederschläge Wind Luftdruck Luftfeuchtigkeit
    00:00 +29°C° 0 mm 1 m/S 714 mmHg 49%
    01:00 +27°C° 0 mm 0 m/S 714 mmHg 50%
    02:00 +26°C° 0 mm 0 m/S 714 mmHg 51%
    03:00 +26°C° 0 mm 0 m/S 713 mmHg 51%
    04:00 +26°C° 0 mm 0 m/S 713 mmHg 52%
    05:00 +26°C° 0 mm 0 m/S 714 mmHg 53%
    06:00 +25°C° 0 mm 0 m/S 714 mmHg 54%
    07:00 +27°C° 0 mm 0 m/S 714 mmHg 48%
    08:00 +30°C° 0 mm 1 m/S 714 mmHg 42%
    09:00 +32°C° 0 mm 1 m/S 714 mmHg 36%
    10:00 +34°C° 0 mm 2 m/S 714 mmHg 33%
    11:00 +35°C° 0 mm 2 m/S 714 mmHg 31%
    12:00 +37°C° 0 mm 3 m/S 714 mmHg 28%
    13:00 +37°C° 0 mm 3 m/S 714 mmHg 27%
    14:00 +37°C° 0 mm 4 m/S 713 mmHg 27%
    15:00 +38°C° 0 mm 4 m/S 713 mmHg 26%
    16:00 +37°C° 0 mm 3 m/S 713 mmHg 28%
    17:00 +36°C° 0 mm 3 m/S 713 mmHg 29%
    18:00 +36°C° 0 mm 3 m/S 712 mmHg 30%
    19:00 +34°C° 0 mm 2 m/S 713 mmHg 32%
    20:00 +32°C° 0 mm 2 m/S 713 mmHg 35%
    21:00 +31°C° 0 mm 1 m/S 713 mmHg 37%
    22:00 +31°C° 0 mm 1 m/S 713 mmHg 37%
    23:00 +31°C° 0 mm 1 m/S 713 mmHg 36%

    25 Juli, Mittwoch

    Zeit Temperatur Niederschläge Wind Luftdruck Luftfeuchtigkeit
    00:00 +31°C° 0 mm 1 m/S 713 mmHg 36%
    01:00 +31°C° 0 mm 1 m/S 713 mmHg 36%
    02:00 +30°C° 0 mm 1 m/S 713 mmHg 35%
    03:00 +30°C° 0 mm 1 m/S 712 mmHg 35%
    04:00 +30°C° 0 mm 1 m/S 713 mmHg 36%
    05:00 +29°C° 0 mm 1 m/S 713 mmHg 36%
    06:00 +29°C° 0 mm 1 m/S 713 mmHg 37%
    07:00 +30°C° 0 mm 1 m/S 713 mmHg 33%
    08:00 +31°C° 0 mm 1 m/S 713 mmHg 30%
    09:00 +32°C° 0 mm 1 m/S 714 mmHg 27%
    10:00 +35°C° 0 mm 2 m/S 714 mmHg 25%
    11:00 +36°C° 0 mm 2 m/S 714 mmHg 23%
    12:00 +37°C° 0 mm 3 m/S 714 mmHg 21%
    13:00 +37°C° 0 mm 3 m/S 713 mmHg 21%
    14:00 +37°C° 0 mm 4 m/S 713 mmHg 21%
    15:00 +37°C° 0 mm 4 m/S 713 mmHg 21%
    16:00 +36°C° 0 mm 4 m/S 712 mmHg 22%
    17:00 +35°C° 0 mm 4 m/S 712 mmHg 23%
    18:00 +34°C° 0 mm 4 m/S 712 mmHg 24%
    19:00 +33°C° 0 mm 3 m/S 712 mmHg 25%
    20:00 +31°C° 0 mm 2 m/S 713 mmHg 26%
    21:00 +30°C° 0 mm 2 m/S 713 mmHg 27%
    22:00 +30°C° 0 mm 1 m/S 713 mmHg 27%
    23:00 +29°C° 0 mm 1 m/S 713 mmHg 27%

    26 Juli, Donnerstag

    Zeit Temperatur Niederschläge Wind Luftdruck Luftfeuchtigkeit
    00:00 +29°C° 0 mm 1 m/S 713 mmHg 28%
    01:00 +28°C° 0 mm 1 m/S 713 mmHg 28%
    02:00 +26°C° 0 mm 0 m/S 713 mmHg 29%
    03:00 +25°C° 0 mm 0 m/S 712 mmHg 30%
    04:00 +25°C° 0 mm 0 m/S 712 mmHg 30%
    05:00 +25°C° 0 mm 0 m/S 713 mmHg 30%
    06:00 +25°C° 0 mm 0 m/S 713 mmHg 31%
    07:00 +29°C° 0 mm 1 m/S 713 mmHg 28%
    08:00 +30°C° 0 mm 1 m/S 713 mmHg 25%
    09:00 +32°C° 0 mm 1 m/S 714 mmHg 22%
    10:00 +34°C° 0 mm 2 m/S 714 mmHg 21%
    11:00 +35°C° 0 mm 2 m/S 713 mmHg 20%
    12:00 +36°C° 0 mm 3 m/S 713 mmHg 20%
    13:00 +36°C° 0 mm 3 m/S 713 mmHg 21%
    14:00 +36°C° 0 mm 4 m/S 713 mmHg 22%
    15:00 +36°C° 0 mm 4 m/S 712 mmHg 22%
    16:00 +35°C° 0 mm 4 m/S 712 mmHg 24%
    17:00 +35°C° 0 mm 4 m/S 712 mmHg 26%
    18:00 +34°C° 0 mm 3 m/S 712 mmHg 27%
    19:00 +33°C° 0 mm 3 m/S 712 mmHg 29%
    20:00 +31°C° 0 mm 2 m/S 712 mmHg 30%
    21:00 +30°C° 0 mm 2 m/S 713 mmHg 32%
    22:00 +29°C° 0 mm 2 m/S 713 mmHg 33%
    23:00 +29°C° 0 mm 1 m/S 713 mmHg 34%

    27 Juli, Freitag

    Zeit Temperatur Niederschläge Wind Luftdruck Luftfeuchtigkeit
    00:00 +28°C° 0 mm 1 m/S 713 mmHg 34%
    01:00 +28°C° 0 mm 1 m/S 712 mmHg 35%
    02:00 +28°C° 0 mm 1 m/S 712 mmHg 35%
    03:00 +27°C° 0 mm 1 m/S 712 mmHg 35%
    04:00 +27°C° 0 mm 1 m/S 712 mmHg 35%
    05:00 +25°C° 0 mm 0 m/S 712 mmHg 35%
    06:00 +25°C° 0 mm 0 m/S 712 mmHg 36%
    07:00 +29°C° 0 mm 1 m/S 713 mmHg 31%
    08:00 +30°C° 0 mm 1 m/S 713 mmHg 27%
    09:00 +32°C° 0 mm 2 m/S 713 mmHg 23%
    10:00 +34°C° 0 mm 2 m/S 713 mmHg 22%
    11:00 +35°C° 0 mm 2 m/S 713 mmHg 21%
    12:00 +37°C° 0 mm 3 m/S 713 mmHg 20%
    13:00 +37°C° 0 mm 3 m/S 713 mmHg 21%
    14:00 +37°C° 0 mm 4 m/S 712 mmHg 22%
    15:00 +37°C° 0 mm 4 m/S 712 mmHg 23%
    16:00 +36°C° 0 mm 4 m/S 712 mmHg 25%
    17:00 +35°C° 0 mm 3 m/S 712 mmHg 27%
    18:00 +34°C° 0 mm 3 m/S 712 mmHg 28%
    19:00 +32°C° 0 mm 2 m/S 712 mmHg 31%
    20:00 +31°C° 0 mm 2 m/S 713 mmHg 34%
    21:00 +30°C° 0 mm 1 m/S 713 mmHg 36%
    22:00 +30°C° 0 mm 1 m/S 713 mmHg 38%
    23:00 +29°C° 0 mm 1 m/S 713 mmHg 39%
    Mehr zeigen